Location: Punta Trebinalonga
(39.7833°N, 8.7333°E)
Time: 10:43:55
(UTC+00:00)

Daily predictions for brighter satellites

Satellite Brightness Start Highest point End
(mag) Time Altitude Azimuth Time Altitude Azimuth Time Altitude Azimuth
USA 276 2.1 16:27:11 10° NW 16:30:16 57° NNE 16:33:21 10° ESE
Cosmos 1933 3.5 16:27:30 10° S 16:31:26 52° E 16:35:23 10° NNE
BREEZE-M R/B 4.1 16:27:58 10° WNW 16:31:28 51° SW 16:39:03 10° SE
Cosmos 841 Rocket 3.9 16:26:59 10° S 16:31:49 42° ESE 16:36:40 10° NNE
Cosmos 1656 3.9 16:27:31 10° NNW 16:33:06 81° WSW 16:38:43 10° SSE
USA 229 DEB 4.0 16:30:39 10° NNW 16:38:02 66° NE 16:45:50 10° SE
USA 229 4.0 16:30:45 10° NNW 16:38:08 65° NE 16:45:55 10° SE
Cosmos 1937 Rocket 3.8 16:34:20 10° N 16:39:26 45° ENE 16:44:30 10° SE
Cosmos 1500 Rocket 3.6 16:37:46 10° N 16:42:13 87° E 16:46:36 10° S
Cosmos 1666 4.2 16:40:09 10° NE 16:42:24 15° ENE 16:44:39 10° ESE
FengYun 1-2 T 4.2 16:38:15 10° SSE 16:43:50 84° ENE 16:49:24 10° NNW
Nadezhda 4 Rocket 4.3 16:37:53 10° N 16:44:12 77° W 16:50:30 10° S
Cosmos 990 Rocket 4.1 16:41:10 10° NNW 16:46:23 83° WSW 16:51:32 10° SSE
NOAA 6 4.0 16:42:09 10° SSE 16:47:16 72° ENE 16:52:23 10° N
Cosmos 1697 Rocket 2.6 16:43:11 10° NNW 16:48:47 67° ENE 16:54:21 10° SSE
Sich 1 3.2 16:47:47 10° N 16:51:57 47° E 16:56:07 10° SSE
Cosmos 1980 Rocket 2.7 16:47:47 10° N 16:53:02 37° ENE 16:58:12 10° SE
USA 234 3.3 16:47:21 10° ESE 16:53:44 58° NE 17:00:07 10° NW
Cosmos 1805 Rocket 3.5 16:49:39 10° N 16:53:58 67° E 16:58:16 10° SSE
Cosmos 2369 3.9 16:49:27 10° NNW 16:55:01 49° ENE 17:00:32 10° SE
Cosmos 1812 3.2 16:54:54 10° SSE 16:58:28 38° E 17:02:03 10° NNE
CZ-4C R/B 3.5 16:52:42 10° NNW 16:59:22 37° NE 17:07:00 10° ESE
Cosmos 1092 Rocket 4.0 16:53:46 10° N 17:00:09 84° E 17:06:29 10° S
Cosmos 2084 3.8 16:56:31 10° NW 17:00:52 74° WSW 17:05:23 10° SSE
NOSS 3-1 (A) 4.3 16:53:56 10° NW 17:01:45 86° WSW 17:10:43 10° SSE
deb Chang Zheng 4 4.3 16:59:06 10° SE 17:02:51 30° ENE 17:06:38 10° N
Cosmos 1428 Rocket 4.4 16:56:43 10° N 17:02:52 76° E 17:09:02 10° SSE
SMAP 3.3 16:58:40 10° S 17:03:18 77° WSW 17:07:59 10° NNW
ISS -2.3 17:01:10 10° NNW 17:03:55 22° NNE 17:04:58 19° NE
SL-16 R/B 3.8 17:01:04 10° NNE 17:04:02 14° NE 17:04:15 14° NE
Cosmos 2082 Rocket 2.2 16:58:42 10° SSW 17:04:21 74° ESE 17:10:01 10° NNE
Cosmos 1939 Rocket 3.5 17:00:32 10° S 17:04:37 62° W 17:08:40 10° NNW
Meteor 1-25 Rocket 4.4 17:00:12 10° NNW 17:05:47 77° W 17:11:23 10° S
CORIOLIS 4.2 17:00:48 10° SSE 17:06:12 87° W 17:11:39 10° NNW
MOS 1-B Rocket 4.2 17:01:02 10° NNE 17:07:01 64° ESE 17:13:54 10° S
Cosmos 858 Rocket 4.4 17:06:38 10° NNW 17:11:57 80° ENE 17:17:12 10° SSE
CZ-4B DEB 4.2 17:07:02 10° SSE 17:12:34 89° WSW 17:18:05 10° NNW
Cosmos 2142 Rocket 4.4 17:10:16 10° S 17:16:18 66° E 17:22:27 10° NNE
Cosmos 2278 4.0 17:13:38 10° N 17:19:04 43° ENE 17:24:27 10° SE
Cosmos 1602 4.4 17:15:18 10° NNW 17:19:05 56° W 17:22:52 10° S
Cosmos 540 Rocket 4.3 17:14:27 10° SW 17:19:24 51° WNW 17:24:23 10° N
ARGOS 3.3 17:17:36 10° SE 17:22:47 48° ENE 17:27:57 10° N
Cosmos 1900 4.4 17:18:04 10° S 17:22:47 53° ESE 17:25:34 24° NE
Cosmos 2279 Rocket 3.9 17:17:43 10° S 17:23:54 72° E 17:30:05 10° NNE
Cosmos 1570 Rocket 3.9 17:18:48 10° S 17:23:59 68° ESE 17:28:35 13° NNE
COSMOS 2406 4.2 17:19:44 10° SW 17:25:14 45° WNW 17:30:44 10° NNE
Cosmos 1833 Rocket 4.2 17:21:36 10° WSW 17:26:40 34° WNW 17:31:46 10° N
Cosmos 1782 3.8 17:23:43 10° SSW 17:27:35 47° W 17:31:27 10° N
COSMO-SKYMED 1 2.5 17:23:37 10° NNE 17:27:58 71° ESE 17:32:17 10° S
Cosmos 1814 Rocket 3.9 17:23:36 10° SSW 17:28:50 87° ESE 17:33:45 12° NNE
Cosmos 921 Rocket 3.4 17:28:12 10° S 17:32:04 38° E 17:32:43 36° ENE
Cosmos 2266 Rocket 4.5 17:26:13 10° N 17:32:05 37° ENE 17:37:59 10° SE
ATLAS 5 CENTAUR R/B 3.7 17:29:15 10° NNW 17:33:05 18° NNE 17:33:07 18° NNE
CZ-2C R/B 2.9 17:30:54 10° SSW 17:34:13 22° SSE 17:35:26 20° SE
Helios 1B 4.5 17:32:06 11° NNE 17:36:22 86° ESE 17:40:40 10° SSW
Cosmos 1633 Rocket 2.9 17:32:47 10° N 17:37:09 68° E 17:41:31 10° SSE
CZ-2D R/B 4.1 17:34:23 10° S 17:38:07 52° W 17:41:52 10° NNW
Cosmos 1818 4.2 17:33:20 10° NNW 17:38:15 33° NE 17:38:50 32° ENE
Meteor 2-6 Rocket 4.1 17:33:07 10° S 17:38:52 72° E 17:44:29 10° NNE
SJ-11-01 4.2 17:36:02 10° SSE 17:40:45 70° ENE 17:45:29 10° N
COSMOS 2455 3.7 17:36:55 10° SW 17:42:41 47° NW 17:48:14 11° NNE
APEX 4.0 17:38:51 10° S 17:42:09 33° SE 17:42:09 33° SE
CZ-4B R/B 3.1 17:39:29 10° SSE 17:44:56 87° W 17:50:19 10° NNW
Cosmos 1151 Rocket 3.5 17:42:17 10° SSW 17:46:32 60° W 17:50:52 10° N
TRACE 4.5 17:46:23 50° NNE 17:47:15 77° E 17:50:58 10° S
CZ-2C R/B 2.6 17:42:13 10° N 17:47:25 77° WNW 17:52:33 10° SSW
Okean O Rocket 1.5 17:44:38 10° SSE 17:49:04 84° ENE 17:53:34 10° NNW
X-37B 2.7 17:49:09 10° SSW 17:50:13 17° S 17:50:13 17° S
Lacrosse 5 rocket 3.2 17:49:08 10° NNW 17:50:36 17° N 17:50:36 17° N
Meteor 2-15 4.3 17:50:08 10° S 17:56:14 80° E 18:02:21 10° N
Cosmos 2208 Rocket 4.2 17:52:39 10° SSW 17:58:01 76° WNW 18:01:39 22° NNE
CZ-4 R/B 4.5 17:54:21 10° S 17:58:27 79° WSW 18:02:36 10° NNW
Cosmos 1867 4.5 17:54:01 10° S 17:57:53 31° SE 17:57:53 31° SE
CZ-4C R/B 3.8 18:00:22 40° SSW 18:00:22 40° SSW 18:02:38 10° SSW
GPS 2-04 Rocket1 3.9 17:56:56 10° W 18:00:43 35° SSW 18:01:28 32° S
Meteor 1-10 Rocket 4.1 17:54:56 10° S 18:00:44 80° E 18:04:52 20° NNE
H-2A R/B 3.2 17:56:16 10° S 18:01:12 44° W 18:06:03 10° NNW
Cosmos 1666 Rocket 4.5 17:58:38 10° NNW 18:02:55 48° W 18:07:08 10° SSW
Cosmos 1328 Rocket 4.2 17:59:43 10° SSW 18:04:04 56° W 18:07:30 16° N
Meteor 1-11 Rocket 3.7 17:59:45 10° N 18:05:17 55° ENE 18:10:53 10° SSE
Cosmos 1470 Rocket 3.4 18:01:46 10° N 18:06:15 82° E 18:10:43 10° S
Cosmos 1655 Rocket 3.9 18:02:07 10° N 18:08:32 76° E 18:14:53 10° SSE
Landsat 5 4.1 18:08:42 30° NNW 18:10:23 51° WNW 18:14:13 10° SSW
Cosmos 2360 Rocket 4.4 18:06:49 10° N 18:07:10 11° N 18:07:10 11° N
USA 32 3.9 18:07:01 10° S 18:11:48 65° ESE 18:11:48 65° ESE
DMSP B5D1-3 4.4 18:13:30 65° SE 18:13:30 65° SE 18:18:15 10° S
Feng Yun 1-1 Rocket 4.3 18:08:23 10° SSE 18:14:19 87° ENE 18:20:14 10° NNW
ATLAS CENTAUR R/B 4.4 18:13:28 10° W 18:18:42 19° NW 18:20:42 15° N
Cosmos 2322 Rocket 3.8 18:25:45 10° NNW 18:27:49 22° N 18:27:49 22° N
USA 234 4.4 18:30:47 10° SSE 18:36:51 40° SW 18:42:56 10° WNW
Cosmos 1980 Rocket 4.0 18:32:01 10° NW 18:36:51 30° WSW 18:41:39 10° SSW
ISS -0.6 18:37:37 10° WNW 18:37:58 13° WNW 18:37:58 13° WNW
CZ-4C R/B 3.5 18:40:54 10° NW 18:48:23 61° WSW 18:56:50 10° SSE
SL-16 R/B 3.4 18:43:17 10° NNW 18:46:11 32° NNW 18:46:11 32° NNW
CZ-2C R/B 4.5 19:09:28 10° WSW 19:09:35 11° WSW 19:09:35 11° WSW
